This is the latest recevied weather packets stored in our database for station/object EA1GLE-11. If no packets are shown the sender has not sent any weather packets the latest 10 day(s).
| Time | Temp. | Humidity | Pressure | Rain* | Wind** | Luminosity | Snow |
|---|---|---|---|---|---|---|---|
| 1777707971 | 23.33° C | 49% | 1020.6 hPa | - | - | - | - |
| 1777706170 | 23.33° C | 49% | 1020.5 hPa | - | - | - | - |
| 1777704370 | 23.33° C | 49% | 1020.7 hPa | - | - | - | - |
| 1777702570 | 23.33° C | 49% | 1020.5 hPa | - | - | - | - |
| 1777700770 | 23.89° C | 49% | 1020.4 hPa | - | - | - | - |
| 1777698970 | 23.89° C | 49% | 1020.4 hPa | - | - | - | - |
| 1777697170 | 23.89° C | 49% | 1020.5 hPa | - | - | - | - |
| 1777695370 | 23.89° C | 49% | 1020.6 hPa | - | - | - | - |
| 1777693571 | 23.89° C | 49% | 1020.8 hPa | - | - | - | - |
| 1777691771 | 24.44° C | 49% | 1020.9 hPa | - | - | - | - |
| 1777689971 | 24.44° C | 49% | 1020.9 hPa | - | - | - | - |
| 1777688171 | 24.44° C | 49% | 1021 hPa | - | - | - | - |
| 1777686370 | 24.44° C | 49% | 1021 hPa | - | - | - | - |
| 1777684570 | 25° C | 49% | 1021.2 hPa | - | - | - | - |
| 1777682770 | 25.56° C | 49% | 1021.4 hPa | - | - | - | - |
| 1777680970 | 25.56° C | 49% | 1021.6 hPa | - | - | - | - |
| 1777679170 | 25° C | 49% | 1021.6 hPa | - | - | - | - |
| 1777677370 | 25° C | 48% | 1021.7 hPa | - | - | - | - |
| 1777675570 | 25° C | 47% | 1021.8 hPa | - | - | - | - |
| 1777673770 | 25° C | 47% | 1021.8 hPa | - | - | - | - |
| 1777671970 | 25° C | 47% | 1021.9 hPa | - | - | - | - |
| 1777670170 | 24.44° C | 48% | 1022.3 hPa | - | - | - | - |
| 1777668370 | 24.44° C | 49% | 1022.1 hPa | - | - | - | - |
| 1777666570 | 23.89° C | 50% | 1021.9 hPa | - | - | - | - |
| 1777664770 | 23.33° C | 49% | 1021.8 hPa | - | - | - | - |
* Rain since midnight (hover to see other rain measurements)
** Current wind speed in m/s (hover to see current wind gust speed)